Year,Month,Day,Hour,Minute,Value (Times are PST for temperature in C)
2013,07,14,00,00,15.30
2013,07,14,00,01,15.30
2013,07,14,00,02,15.30
2013,07,14,00,03,15.30
2013,07,14,00,04,15.20
2013,07,14,00,05,15.20
2013,07,14,00,06,15.20
2013,07,14,00,07,15.20
2013,07,14,00,08,15.20
2013,07,14,00,09,15.20
2013,07,14,00,10,15.20
2013,07,14,00,11,15.10
2013,07,14,00,12,15.10
2013,07,14,00,13,15.10
2013,07,14,00,14,15.10
2013,07,14,00,15,15.10
2013,07,14,00,16,15.10
2013,07,14,00,17,15.10
2013,07,14,00,18,15.00
2013,07,14,00,19,15.00
2013,07,14,00,20,15.00
2013,07,14,00,21,14.90
2013,07,14,00,22,14.90
2013,07,14,00,23,14.90
2013,07,14,00,24,14.90
2013,07,14,00,25,14.80
2013,07,14,00,26,14.80
2013,07,14,00,27,14.80
2013,07,14,00,28,14.80
2013,07,14,00,29,14.80
2013,07,14,00,30,14.80
2013,07,14,00,31,14.80
2013,07,14,00,32,14.80
2013,07,14,00,33,14.80
2013,07,14,00,34,14.70
2013,07,14,00,35,14.70
2013,07,14,00,36,14.70
2013,07,14,00,37,14.60
2013,07,14,00,38,14.60
2013,07,14,00,39,14.60
2013,07,14,00,40,14.60
2013,07,14,00,41,14.50
2013,07,14,00,42,14.50
2013,07,14,00,43,14.50
2013,07,14,00,44,14.50
2013,07,14,00,45,14.40
2013,07,14,00,46,14.40
2013,07,14,00,47,14.40
2013,07,14,00,48,14.30
2013,07,14,00,49,14.30
2013,07,14,00,50,14.20
2013,07,14,00,51,14.20
2013,07,14,00,52,14.20
2013,07,14,00,53,14.20
2013,07,14,00,54,14.20
2013,07,14,00,55,14.20
2013,07,14,00,56,14.20
2013,07,14,00,57,14.10
2013,07,14,00,58,14.10
2013,07,14,00,59,14.10
2013,07,14,01,00,14.10
2013,07,14,01,01,14.00
2013,07,14,01,02,14.00
2013,07,14,01,03,14.00
2013,07,14,01,04,14.00
2013,07,14,01,05,13.90
2013,07,14,01,06,13.90
2013,07,14,01,07,13.90
2013,07,14,01,08,13.90
2013,07,14,01,09,13.80
2013,07,14,01,10,13.80
2013,07,14,01,11,13.80
2013,07,14,01,12,13.80
2013,07,14,01,13,13.70
2013,07,14,01,14,13.70
2013,07,14,01,15,13.70
2013,07,14,01,16,13.70
2013,07,14,01,17,13.70
2013,07,14,01,18,13.70
2013,07,14,01,19,13.70
2013,07,14,01,20,13.70
2013,07,14,01,21,13.70
2013,07,14,01,22,13.70
2013,07,14,01,23,13.70
2013,07,14,01,24,13.70
2013,07,14,01,25,13.70
2013,07,14,01,26,13.70
2013,07,14,01,27,13.70
2013,07,14,01,28,13.70
2013,07,14,01,29,13.70
2013,07,14,01,30,13.70
2013,07,14,01,31,13.70
2013,07,14,01,32,13.70
2013,07,14,01,33,13.70
2013,07,14,01,34,13.70
2013,07,14,01,35,13.70
2013,07,14,01,36,13.70
2013,07,14,01,37,13.70
2013,07,14,01,38,13.70
2013,07,14,01,39,13.70
2013,07,14,01,40,13.70
2013,07,14,01,41,13.70
2013,07,14,01,42,13.70
2013,07,14,01,43,13.70
2013,07,14,01,44,13.70
2013,07,14,01,45,13.70
2013,07,14,01,46,13.70
2013,07,14,01,47,13.70
2013,07,14,01,48,13.70
2013,07,14,01,49,13.70
2013,07,14,01,50,13.70
2013,07,14,01,51,13.70
2013,07,14,01,52,13.70
2013,07,14,01,53,13.70
2013,07,14,01,54,13.70
2013,07,14,01,55,13.70
2013,07,14,01,56,13.70
2013,07,14,01,57,13.70
2013,07,14,01,58,13.70
2013,07,14,01,59,13.70
2013,07,14,02,00,13.70
2013,07,14,02,01,13.70
2013,07,14,02,02,13.70
2013,07,14,02,03,13.70
2013,07,14,02,04,13.70
2013,07,14,02,05,13.60
2013,07,14,02,06,13.60
2013,07,14,02,07,13.60
2013,07,14,02,08,13.60
2013,07,14,02,09,13.60
2013,07,14,02,10,13.50
2013,07,14,02,11,13.50
2013,07,14,02,12,13.50
2013,07,14,02,13,13.50
2013,07,14,02,14,13.50
2013,07,14,02,15,13.40
2013,07,14,02,16,13.40
2013,07,14,02,17,13.40
2013,07,14,02,18,13.40
2013,07,14,02,19,13.40
2013,07,14,02,20,13.40
2013,07,14,02,21,13.30
2013,07,14,02,22,13.30
2013,07,14,02,23,13.30
2013,07,14,02,24,13.30
2013,07,14,02,25,13.30
2013,07,14,02,26,13.30
2013,07,14,02,27,13.30
2013,07,14,02,28,13.30
2013,07,14,02,29,13.20
2013,07,14,02,30,13.20
2013,07,14,02,31,13.20
2013,07,14,02,32,13.20
2013,07,14,02,33,13.20
2013,07,14,02,34,13.20
2013,07,14,02,35,13.10
2013,07,14,02,36,13.10
2013,07,14,02,37,13.10
2013,07,14,02,38,13.10
2013,07,14,02,39,13.10
2013,07,14,02,40,13.10
2013,07,14,02,41,13.00
2013,07,14,02,42,13.00
2013,07,14,02,43,13.00
2013,07,14,02,44,13.00
2013,07,14,02,45,13.00
2013,07,14,02,46,13.00
2013,07,14,02,47,12.90
2013,07,14,02,48,12.90
2013,07,14,02,49,12.90
2013,07,14,02,50,12.90
2013,07,14,02,51,12.90
2013,07,14,02,52,12.90
2013,07,14,02,53,12.90
2013,07,14,02,54,12.90
2013,07,14,02,55,12.90
2013,07,14,02,56,12.90
2013,07,14,02,57,12.90
2013,07,14,02,58,12.90
2013,07,14,02,59,12.80
2013,07,14,03,00,12.80
2013,07,14,03,01,12.80
2013,07,14,03,02,12.80
2013,07,14,03,03,12.80
2013,07,14,03,04,12.80
2013,07,14,03,05,12.80
2013,07,14,03,06,12.80
2013,07,14,03,07,12.80
2013,07,14,03,08,12.80
2013,07,14,03,09,12.80
2013,07,14,03,10,12.80
2013,07,14,03,11,12.80
2013,07,14,03,12,12.80
2013,07,14,03,13,12.70
2013,07,14,03,14,12.70
2013,07,14,03,15,12.70
2013,07,14,03,16,12.70
2013,07,14,03,17,12.60
2013,07,14,03,18,12.60
2013,07,14,03,19,12.60
2013,07,14,03,20,12.60
2013,07,14,03,21,12.50
2013,07,14,03,22,12.50
2013,07,14,03,23,12.50
2013,07,14,03,24,12.50
2013,07,14,03,25,12.40
2013,07,14,03,26,12.40
2013,07,14,03,27,12.40
2013,07,14,03,28,12.40
2013,07,14,03,29,12.30
2013,07,14,03,30,12.30
2013,07,14,03,31,12.30
2013,07,14,03,32,12.30
2013,07,14,03,33,12.30
2013,07,14,03,34,12.30
2013,07,14,03,35,12.30
2013,07,14,03,36,12.30
2013,07,14,03,37,12.30
2013,07,14,03,38,12.30
2013,07,14,03,39,12.30
2013,07,14,03,40,12.30
2013,07,14,03,41,12.30
2013,07,14,03,42,12.30
2013,07,14,03,43,12.30
2013,07,14,03,44,12.30
2013,07,14,03,45,12.30
2013,07,14,03,46,12.30
2013,07,14,03,47,12.30
2013,07,14,03,48,12.30
2013,07,14,03,49,12.30
2013,07,14,03,50,12.30
2013,07,14,03,51,12.30
2013,07,14,03,52,12.30
2013,07,14,03,53,12.30
2013,07,14,03,54,12.20
2013,07,14,03,55,12.20
2013,07,14,03,56,12.20
2013,07,14,03,57,12.20
2013,07,14,03,58,12.20
2013,07,14,03,59,12.20
2013,07,14,04,00,12.20
2013,07,14,04,01,12.20
2013,07,14,04,02,12.20
2013,07,14,04,03,12.20
2013,07,14,04,04,12.10
2013,07,14,04,05,12.10
2013,07,14,04,06,12.10
2013,07,14,04,07,12.10
2013,07,14,04,08,12.10
2013,07,14,04,09,12.00
2013,07,14,04,10,12.00
2013,07,14,04,11,12.00
2013,07,14,04,12,12.00
2013,07,14,04,13,12.00
2013,07,14,04,14,11.90
2013,07,14,04,15,11.90
2013,07,14,04,16,11.90
2013,07,14,04,17,11.90
2013,07,14,04,18,11.80
2013,07,14,04,19,11.80
2013,07,14,04,20,11.80
2013,07,14,04,21,11.80
2013,07,14,04,22,11.80
2013,07,14,04,23,11.80
2013,07,14,04,24,11.80
2013,07,14,04,25,11.80
2013,07,14,04,26,11.80
2013,07,14,04,27,11.80
2013,07,14,04,28,11.70
2013,07,14,04,29,11.70
2013,07,14,04,30,11.70
2013,07,14,04,31,11.70
2013,07,14,04,32,11.70
2013,07,14,04,33,11.70
2013,07,14,04,34,11.70
2013,07,14,04,35,11.70
2013,07,14,04,36,11.70
2013,07,14,04,37,11.70
2013,07,14,04,38,11.70
2013,07,14,04,39,11.70
2013,07,14,04,40,11.70
2013,07,14,04,41,11.70
2013,07,14,04,42,11.70
2013,07,14,04,43,11.70
2013,07,14,04,44,11.70
2013,07,14,04,45,11.70
2013,07,14,04,46,11.60
2013,07,14,04,47,11.60
2013,07,14,04,48,11.60
2013,07,14,04,49,11.60
2013,07,14,04,50,11.60
2013,07,14,04,51,11.60
2013,07,14,04,52,11.60
2013,07,14,04,53,11.60
2013,07,14,04,54,11.60
2013,07,14,04,55,11.60
2013,07,14,04,56,11.60
2013,07,14,04,57,11.60
2013,07,14,04,58,11.60
2013,07,14,04,59,11.60
2013,07,14,05,00,11.60
2013,07,14,05,01,11.60
2013,07,14,05,02,11.60
2013,07,14,05,03,11.60
2013,07,14,05,04,11.60
2013,07,14,05,05,11.60
2013,07,14,05,06,11.60
2013,07,14,05,07,11.60
2013,07,14,05,08,11.60
2013,07,14,05,09,11.60
2013,07,14,05,10,11.60
2013,07,14,05,11,11.60
2013,07,14,05,12,11.60
2013,07,14,05,13,11.60
2013,07,14,05,14,11.60
2013,07,14,05,15,11.60
2013,07,14,05,16,11.60
2013,07,14,05,17,11.60
2013,07,14,05,18,11.60
2013,07,14,05,19,11.60
2013,07,14,05,20,11.60
2013,07,14,05,21,11.60
2013,07,14,05,22,11.50
2013,07,14,05,23,11.40
2013,07,14,05,24,11.40
2013,07,14,05,25,11.40
2013,07,14,05,26,11.40
2013,07,14,05,27,11.40
2013,07,14,05,28,11.40
2013,07,14,05,29,11.40
2013,07,14,05,30,11.40
2013,07,14,05,31,11.40
2013,07,14,05,32,11.40
2013,07,14,05,33,11.40
2013,07,14,05,34,11.40
2013,07,14,05,35,11.30
2013,07,14,05,36,11.40
2013,07,14,05,37,11.40
2013,07,14,05,38,11.30
2013,07,14,05,39,11.30
2013,07,14,05,40,11.30
2013,07,14,05,41,11.30
2013,07,14,05,42,11.40
2013,07,14,05,43,11.40
2013,07,14,05,44,11.40
2013,07,14,05,45,11.40
2013,07,14,05,46,11.40
2013,07,14,05,47,11.40
2013,07,14,05,48,11.40
2013,07,14,05,49,11.40
2013,07,14,05,50,11.40
2013,07,14,05,51,11.40
2013,07,14,05,52,11.40
2013,07,14,05,53,11.40
2013,07,14,05,54,11.40
2013,07,14,05,55,11.40
2013,07,14,05,56,11.40
2013,07,14,05,57,11.40
2013,07,14,05,58,11.40
2013,07,14,05,59,11.40
2013,07,14,06,00,11.40
2013,07,14,06,01,11.40
2013,07,14,06,02,11.40
2013,07,14,06,03,11.40
2013,07,14,06,04,11.40
2013,07,14,06,05,11.50
2013,07,14,06,06,11.60
2013,07,14,06,07,11.60
2013,07,14,06,08,11.60
2013,07,14,06,09,11.60
2013,07,14,06,10,11.60
2013,07,14,06,11,11.60
2013,07,14,06,12,11.70
2013,07,14,06,13,11.80
2013,07,14,06,14,11.80
2013,07,14,06,15,11.80
2013,07,14,06,16,11.90
2013,07,14,06,17,12.00
2013,07,14,06,18,12.00
2013,07,14,06,19,12.10
2013,07,14,06,20,12.20
2013,07,14,06,21,12.20
2013,07,14,06,22,12.30
2013,07,14,06,23,12.30
2013,07,14,06,24,12.30
2013,07,14,06,25,12.30
2013,07,14,06,26,12.40
2013,07,14,06,27,12.50
2013,07,14,06,28,12.50
2013,07,14,06,29,12.60
2013,07,14,06,30,12.60
2013,07,14,06,31,12.70
2013,07,14,06,32,12.70
2013,07,14,06,33,12.70
2013,07,14,06,34,12.70
2013,07,14,06,35,12.80
2013,07,14,06,36,12.80
2013,07,14,06,37,12.80
2013,07,14,06,38,12.80
2013,07,14,06,39,12.80
2013,07,14,06,40,12.80
2013,07,14,06,41,12.80
2013,07,14,06,42,12.90
2013,07,14,06,43,13.00
2013,07,14,06,44,13.00
2013,07,14,06,45,13.10
2013,07,14,06,46,13.10
2013,07,14,06,47,13.10
2013,07,14,06,48,13.20
2013,07,14,06,49,13.20
2013,07,14,06,50,13.20
2013,07,14,06,51,13.30
2013,07,14,06,52,13.30
2013,07,14,06,53,13.30
2013,07,14,06,54,13.30
2013,07,14,06,55,13.40
2013,07,14,06,56,13.40
2013,07,14,06,57,13.50
2013,07,14,06,58,13.50
2013,07,14,06,59,13.60
2013,07,14,07,00,13.60
2013,07,14,07,01,13.70
2013,07,14,07,02,13.80
2013,07,14,07,03,13.90
2013,07,14,07,04,13.90
2013,07,14,07,05,14.00
2013,07,14,07,06,14.10
2013,07,14,07,07,14.20
2013,07,14,07,08,14.20
2013,07,14,07,09,14.30
2013,07,14,07,10,14.40
2013,07,14,07,11,14.40
2013,07,14,07,12,14.50
2013,07,14,07,13,14.50
2013,07,14,07,14,14.60
2013,07,14,07,15,14.60
2013,07,14,07,16,14.60
2013,07,14,07,17,14.70
2013,07,14,07,18,14.80
2013,07,14,07,19,14.90
2013,07,14,07,20,15.00
2013,07,14,07,21,15.10
2013,07,14,07,22,15.20
2013,07,14,07,23,15.20
2013,07,14,07,24,15.30
2013,07,14,07,25,15.30
2013,07,14,07,26,15.30
2013,07,14,07,27,15.30
2013,07,14,07,28,15.40
2013,07,14,07,29,15.50
2013,07,14,07,30,15.50
2013,07,14,07,31,15.50
2013,07,14,07,32,15.60
2013,07,14,07,33,15.70
2013,07,14,07,34,15.70
2013,07,14,07,35,15.80
2013,07,14,07,36,15.80
2013,07,14,07,37,15.90
2013,07,14,07,38,15.90
2013,07,14,07,39,16.10
2013,07,14,07,40,16.10
2013,07,14,07,41,16.20
2013,07,14,07,42,16.30
2013,07,14,07,43,16.50
2013,07,14,07,44,16.70
2013,07,14,07,45,16.80
2013,07,14,07,46,16.90
2013,07,14,07,47,17.00
2013,07,14,07,48,17.10
2013,07,14,07,49,17.20
2013,07,14,07,50,17.30
2013,07,14,07,51,17.30
2013,07,14,07,52,17.30
2013,07,14,07,53,17.30
2013,07,14,07,54,17.40
2013,07,14,07,55,17.40
2013,07,14,07,56,17.50
2013,07,14,07,57,17.50
2013,07,14,07,58,17.50
2013,07,14,07,59,17.50
2013,07,14,08,00,17.60
2013,07,14,08,01,17.60
2013,07,14,08,02,17.60
2013,07,14,08,03,17.70
2013,07,14,08,04,17.70
2013,07,14,08,05,17.70
2013,07,14,08,06,17.70
2013,07,14,08,07,17.80
2013,07,14,08,08,17.80
2013,07,14,08,09,17.90
2013,07,14,08,10,17.90
2013,07,14,08,11,17.90
2013,07,14,08,12,17.90
2013,07,14,08,13,17.90
2013,07,14,08,14,17.90
2013,07,14,08,15,17.90
2013,07,14,08,16,17.90
2013,07,14,08,17,17.90
2013,07,14,08,18,17.90
2013,07,14,08,19,18.00
2013,07,14,08,20,18.10
2013,07,14,08,21,18.20
2013,07,14,08,22,18.30
2013,07,14,08,23,18.40
2013,07,14,08,24,18.50
2013,07,14,08,25,18.50
2013,07,14,08,26,18.50
2013,07,14,08,27,18.50
2013,07,14,08,28,18.50
2013,07,14,08,29,18.50
2013,07,14,08,30,18.60
2013,07,14,08,31,18.60
2013,07,14,08,32,18.70
2013,07,14,08,33,18.70
2013,07,14,08,34,18.70
2013,07,14,08,35,18.70
2013,07,14,08,36,18.70
2013,07,14,08,37,18.80
2013,07,14,08,38,18.90
2013,07,14,08,39,18.90
2013,07,14,08,40,18.90
2013,07,14,08,41,18.90
2013,07,14,08,42,18.90
2013,07,14,08,43,19.00
2013,07,14,08,44,19.10
2013,07,14,08,45,19.10
2013,07,14,08,46,19.20
2013,07,14,08,47,19.30
2013,07,14,08,48,19.40
2013,07,14,08,49,19.50
2013,07,14,08,50,19.60
2013,07,14,08,51,19.60
2013,07,14,08,52,19.60
2013,07,14,08,53,19.70
2013,07,14,08,54,19.80
2013,07,14,08,55,19.90
2013,07,14,08,56,19.90
2013,07,14,08,57,19.90
2013,07,14,08,58,19.90
2013,07,14,08,59,20.00
2013,07,14,09,00,20.10
2013,07,14,09,01,20.10
2013,07,14,09,02,20.10
2013,07,14,09,03,20.10
2013,07,14,09,04,20.10
2013,07,14,09,05,20.00
2013,07,14,09,06,19.90
2013,07,14,09,07,19.80
2013,07,14,09,08,19.70
2013,07,14,09,09,19.70
2013,07,14,09,10,19.60
2013,07,14,09,11,19.60
2013,07,14,09,12,19.50
2013,07,14,09,13,19.50
2013,07,14,09,14,19.60
2013,07,14,09,15,19.60
2013,07,14,09,16,19.60
2013,07,14,09,17,19.70
2013,07,14,09,18,19.70
2013,07,14,09,19,19.70
2013,07,14,09,20,19.70
2013,07,14,09,21,19.80
2013,07,14,09,22,19.90
2013,07,14,09,23,19.90
2013,07,14,09,24,19.90
2013,07,14,09,25,19.90
2013,07,14,09,26,19.90
2013,07,14,09,27,19.90
2013,07,14,09,28,19.90
2013,07,14,09,29,20.00
2013,07,14,09,30,20.00
2013,07,14,09,31,19.90
2013,07,14,09,32,19.90
2013,07,14,09,33,19.90
2013,07,14,09,34,19.90
2013,07,14,09,35,19.90
2013,07,14,09,36,19.90
2013,07,14,09,37,19.90
2013,07,14,09,38,19.90
2013,07,14,09,39,20.00
2013,07,14,09,40,20.10
2013,07,14,09,41,20.20
2013,07,14,09,42,20.20
2013,07,14,09,43,20.20
2013,07,14,09,44,20.20
2013,07,14,09,45,20.10
2013,07,14,09,46,20.00
2013,07,14,09,47,19.90
2013,07,14,09,48,19.90
2013,07,14,09,49,19.90
2013,07,14,09,50,20.00
2013,07,14,09,51,20.10
2013,07,14,09,52,20.20
2013,07,14,09,53,20.30
2013,07,14,09,54,20.30
2013,07,14,09,55,20.30
2013,07,14,09,56,20.30
2013,07,14,09,57,20.20
2013,07,14,09,58,20.20
2013,07,14,09,59,20.20
2013,07,14,10,00,20.10
2013,07,14,10,01,19.90
2013,07,14,10,02,19.80
2013,07,14,10,03,19.80
2013,07,14,10,04,19.80
2013,07,14,10,05,19.80
2013,07,14,10,06,19.80
2013,07,14,10,07,19.80
2013,07,14,10,08,19.90
2013,07,14,10,09,20.10
2013,07,14,10,10,20.20
2013,07,14,10,11,20.20
2013,07,14,10,12,20.20
2013,07,14,10,13,20.20
2013,07,14,10,14,20.10
2013,07,14,10,15,20.00
2013,07,14,10,16,19.90
2013,07,14,10,17,19.90
2013,07,14,10,18,19.80
2013,07,14,10,19,19.80
2013,07,14,10,20,19.90
2013,07,14,10,21,20.00
2013,07,14,10,22,20.20
2013,07,14,10,23,20.20
2013,07,14,10,24,20.30
2013,07,14,10,25,20.40
2013,07,14,10,26,20.30
2013,07,14,10,27,20.20
2013,07,14,10,28,20.00
2013,07,14,10,29,19.90
2013,07,14,10,30,19.90
2013,07,14,10,31,19.90
2013,07,14,10,32,20.10
2013,07,14,10,33,20.20
2013,07,14,10,34,20.30
2013,07,14,10,35,20.40
2013,07,14,10,36,20.50
2013,07,14,10,37,20.50
2013,07,14,10,38,20.40
2013,07,14,10,39,20.50
2013,07,14,10,40,20.50
2013,07,14,10,41,20.50
2013,07,14,10,42,20.40
2013,07,14,10,43,20.40
2013,07,14,10,44,20.50
2013,07,14,10,45,20.40
2013,07,14,10,46,20.40
2013,07,14,10,47,20.40
2013,07,14,10,48,20.40
2013,07,14,10,49,20.30
2013,07,14,10,50,20.30
2013,07,14,10,51,20.50
2013,07,14,10,52,20.60
2013,07,14,10,53,20.80
2013,07,14,10,54,20.90
2013,07,14,10,55,21.00
2013,07,14,10,56,21.10
2013,07,14,10,57,21.10
2013,07,14,10,58,21.10
2013,07,14,10,59,21.00
2013,07,14,11,00,20.90
2013,07,14,11,01,20.80
2013,07,14,11,02,20.70
2013,07,14,11,03,20.70
2013,07,14,11,04,20.80
2013,07,14,11,05,21.00
2013,07,14,11,06,21.20
2013,07,14,11,07,21.30
2013,07,14,11,08,21.40
2013,07,14,11,09,21.60
2013,07,14,11,10,21.60
2013,07,14,11,11,21.60
2013,07,14,11,12,21.70
2013,07,14,11,13,21.70
2013,07,14,11,14,21.70
2013,07,14,11,15,21.50
2013,07,14,11,16,21.30
2013,07,14,11,17,21.30
2013,07,14,11,18,21.20
2013,07,14,11,19,21.10
2013,07,14,11,20,21.00
2013,07,14,11,21,21.00
2013,07,14,11,22,21.10
2013,07,14,11,23,21.10
2013,07,14,11,24,21.20
2013,07,14,11,25,21.20
2013,07,14,11,26,21.20
2013,07,14,11,27,21.20
2013,07,14,11,28,21.20
2013,07,14,11,29,21.30
2013,07,14,11,30,21.30
2013,07,14,11,31,21.40
2013,07,14,11,32,21.30
2013,07,14,11,33,21.30
2013,07,14,11,34,21.40
2013,07,14,11,35,21.50
2013,07,14,11,36,21.50
2013,07,14,11,37,21.60
2013,07,14,11,38,21.60
2013,07,14,11,39,21.40
2013,07,14,11,40,21.30
2013,07,14,11,41,21.20
2013,07,14,11,42,21.00
2013,07,14,11,43,21.00
2013,07,14,11,44,20.90
2013,07,14,11,45,20.80
2013,07,14,11,46,20.80
2013,07,14,11,47,20.80
2013,07,14,11,48,20.90
2013,07,14,11,49,21.10
2013,07,14,11,50,21.30
2013,07,14,11,51,21.30
2013,07,14,11,52,21.30
2013,07,14,11,53,21.30
2013,07,14,11,54,21.30
2013,07,14,11,55,21.30
2013,07,14,11,56,21.30
2013,07,14,11,57,21.40
2013,07,14,11,58,21.60
2013,07,14,11,59,21.60
2013,07,14,12,00,21.60
2013,07,14,12,01,21.60
2013,07,14,12,02,21.60
2013,07,14,12,03,21.50
2013,07,14,12,04,21.30
2013,07,14,12,05,21.20
2013,07,14,12,06,21.00
2013,07,14,12,07,21.00
2013,07,14,12,08,21.00
2013,07,14,12,09,21.00
2013,07,14,12,10,21.00
2013,07,14,12,11,21.00
2013,07,14,12,12,21.10
2013,07,14,12,13,21.20
2013,07,14,12,14,21.40
2013,07,14,12,15,21.50
2013,07,14,12,16,21.50
2013,07,14,12,17,21.30
2013,07,14,12,18,21.30
2013,07,14,12,19,21.20
2013,07,14,12,20,21.20
2013,07,14,12,21,21.30
2013,07,14,12,22,21.40
2013,07,14,12,23,21.40
2013,07,14,12,24,21.40
2013,07,14,12,25,21.60
2013,07,14,12,26,21.60
2013,07,14,12,27,21.60
2013,07,14,12,28,21.60
2013,07,14,12,29,21.50
2013,07,14,12,30,21.40
2013,07,14,12,31,21.30
2013,07,14,12,32,21.40
2013,07,14,12,33,21.50
2013,07,14,12,34,21.60
2013,07,14,12,35,21.60
2013,07,14,12,36,21.70
2013,07,14,12,37,21.80
2013,07,14,12,38,21.70
2013,07,14,12,39,21.40
2013,07,14,12,40,21.20
2013,07,14,12,41,21.20
2013,07,14,12,42,21.30
2013,07,14,12,43,21.20
2013,07,14,12,44,21.20
2013,07,14,12,45,21.10
2013,07,14,12,46,21.10
2013,07,14,12,47,21.00
2013,07,14,12,48,21.00
2013,07,14,12,49,21.00
2013,07,14,12,50,21.20
2013,07,14,12,51,21.30
2013,07,14,12,52,21.30
2013,07,14,12,53,21.40
2013,07,14,12,54,21.50
2013,07,14,12,55,21.60
2013,07,14,12,56,21.60
2013,07,14,12,57,21.70
2013,07,14,12,58,21.70
2013,07,14,12,59,21.70
2013,07,14,13,00,21.70
2013,07,14,13,01,21.80
2013,07,14,13,02,21.80
2013,07,14,13,03,21.90
2013,07,14,13,04,22.10
2013,07,14,13,05,22.30
2013,07,14,13,06,22.30
2013,07,14,13,07,22.50
2013,07,14,13,08,22.70
2013,07,14,13,09,22.80
2013,07,14,13,10,22.80
2013,07,14,13,11,22.70
2013,07,14,13,12,22.60
2013,07,14,13,13,22.70
2013,07,14,13,14,22.80
2013,07,14,13,15,22.90
2013,07,14,13,16,23.00
2013,07,14,13,17,23.20
2013,07,14,13,18,23.30
2013,07,14,13,19,23.30
2013,07,14,13,20,23.30
2013,07,14,13,21,23.40
2013,07,14,13,22,23.50
2013,07,14,13,23,23.60
2013,07,14,13,24,23.60
2013,07,14,13,25,23.70
2013,07,14,13,26,23.80
2013,07,14,13,27,23.80
2013,07,14,13,28,23.70
2013,07,14,13,29,23.60
2013,07,14,13,30,23.60
2013,07,14,13,31,23.70
2013,07,14,13,32,23.70
2013,07,14,13,33,23.70
2013,07,14,13,34,23.70
2013,07,14,13,35,23.80
2013,07,14,13,36,23.80
2013,07,14,13,37,23.90
2013,07,14,13,38,24.10
2013,07,14,13,39,24.30
2013,07,14,13,40,24.30
2013,07,14,13,41,24.20
2013,07,14,13,42,24.20
2013,07,14,13,43,24.30
2013,07,14,13,44,24.20
2013,07,14,13,45,24.20
2013,07,14,13,46,24.30
2013,07,14,13,47,24.20
2013,07,14,13,48,24.10
2013,07,14,13,49,24.10
2013,07,14,13,50,24.10
2013,07,14,13,51,24.20
2013,07,14,13,52,24.40
2013,07,14,13,53,24.40
2013,07,14,13,54,24.40
2013,07,14,13,55,24.40
2013,07,14,13,56,24.40
2013,07,14,13,57,24.30
2013,07,14,13,58,24.40
2013,07,14,13,59,24.40
2013,07,14,14,00,24.40
2013,07,14,14,01,24.40
2013,07,14,14,02,24.50
2013,07,14,14,03,24.50
2013,07,14,14,04,24.60
2013,07,14,14,05,24.50
2013,07,14,14,06,24.50
2013,07,14,14,07,24.70
2013,07,14,14,08,24.80
2013,07,14,14,09,24.80
2013,07,14,14,10,24.90
2013,07,14,14,11,24.90
2013,07,14,14,12,24.90
2013,07,14,14,13,24.90
2013,07,14,14,14,25.10
2013,07,14,14,15,25.20
2013,07,14,14,16,25.20
2013,07,14,14,17,25.30
2013,07,14,14,18,25.20
2013,07,14,14,19,25.30
2013,07,14,14,20,25.20
2013,07,14,14,21,25.00
2013,07,14,14,22,24.90
2013,07,14,14,23,25.00
2013,07,14,14,24,25.10
2013,07,14,14,25,25.20
2013,07,14,14,26,25.40
2013,07,14,14,27,25.50
2013,07,14,14,28,25.40
2013,07,14,14,29,25.30
2013,07,14,14,30,25.20
2013,07,14,14,31,25.30
2013,07,14,14,32,25.30
2013,07,14,14,33,25.30
2013,07,14,14,34,25.50
2013,07,14,14,35,25.70
2013,07,14,14,36,25.70
2013,07,14,14,37,25.70
2013,07,14,14,38,25.60
2013,07,14,14,39,25.60
2013,07,14,14,40,25.60
2013,07,14,14,41,25.70
2013,07,14,14,42,25.80
2013,07,14,14,43,25.80
2013,07,14,14,44,25.80
2013,07,14,14,45,25.80
2013,07,14,14,46,25.80
2013,07,14,14,47,25.90
2013,07,14,14,48,26.00
2013,07,14,14,49,26.00
2013,07,14,14,50,26.10
2013,07,14,14,51,26.10
2013,07,14,14,52,26.20
2013,07,14,14,53,26.20
2013,07,14,14,54,26.10
2013,07,14,14,55,26.10
2013,07,14,14,56,26.10
2013,07,14,14,57,26.10
2013,07,14,14,58,26.20
2013,07,14,14,59,26.30
2013,07,14,15,00,26.40
2013,07,14,15,01,26.40
2013,07,14,15,02,26.50
2013,07,14,15,03,26.50
2013,07,14,15,04,26.40
2013,07,14,15,05,26.30
2013,07,14,15,06,26.30
2013,07,14,15,07,26.20
2013,07,14,15,08,26.10
2013,07,14,15,09,26.00
2013,07,14,15,10,25.90
2013,07,14,15,11,25.80
2013,07,14,15,12,25.80
2013,07,14,15,13,25.90
2013,07,14,15,14,25.90
2013,07,14,15,15,26.00
2013,07,14,15,16,26.00
2013,07,14,15,17,26.00
2013,07,14,15,18,26.00
2013,07,14,15,19,26.00
2013,07,14,15,20,26.00
2013,07,14,15,21,26.10
2013,07,14,15,22,26.20
2013,07,14,15,23,26.20
2013,07,14,15,24,26.20
2013,07,14,15,25,26.30
2013,07,14,15,26,26.30
2013,07,14,15,27,26.30
2013,07,14,15,28,26.30
2013,07,14,15,29,26.20
2013,07,14,15,30,26.30
2013,07,14,15,31,26.20
2013,07,14,15,32,26.20
2013,07,14,15,33,26.30
2013,07,14,15,34,26.30
2013,07,14,15,35,26.20
2013,07,14,15,36,26.20
2013,07,14,15,37,26.10
2013,07,14,15,38,26.10
2013,07,14,15,39,26.10
2013,07,14,15,40,26.10
2013,07,14,15,41,26.10
2013,07,14,15,42,26.20
2013,07,14,15,43,26.20
2013,07,14,15,44,26.20
2013,07,14,15,45,26.10
2013,07,14,15,46,25.90
2013,07,14,15,47,25.90
2013,07,14,15,48,25.80
2013,07,14,15,49,25.80
2013,07,14,15,50,25.90
2013,07,14,15,51,26.00
2013,07,14,15,52,26.10
2013,07,14,15,53,26.10
2013,07,14,15,54,26.00
2013,07,14,15,55,26.00
2013,07,14,15,56,26.00
2013,07,14,15,57,26.00
2013,07,14,15,58,26.00
2013,07,14,15,59,26.00
2013,07,14,16,00,26.00
2013,07,14,16,01,26.10
2013,07,14,16,02,26.10
2013,07,14,16,03,26.10
2013,07,14,16,04,26.10
2013,07,14,16,05,26.00
2013,07,14,16,06,26.00
2013,07,14,16,07,26.00
2013,07,14,16,08,26.00
2013,07,14,16,09,26.10
2013,07,14,16,10,26.10
2013,07,14,16,11,26.10
2013,07,14,16,12,25.90
2013,07,14,16,13,25.90
2013,07,14,16,14,25.90
2013,07,14,16,15,26.00
2013,07,14,16,16,26.10
2013,07,14,16,17,26.10
2013,07,14,16,18,26.10
2013,07,14,16,19,26.20
2013,07,14,16,20,26.10
2013,07,14,16,21,26.20
2013,07,14,16,22,26.20
2013,07,14,16,23,26.20
2013,07,14,16,24,26.10
2013,07,14,16,25,26.00
2013,07,14,16,26,25.90
2013,07,14,16,27,25.90
2013,07,14,16,28,25.90
2013,07,14,16,29,25.80
2013,07,14,16,30,25.80
2013,07,14,16,31,25.80
2013,07,14,16,32,25.70
2013,07,14,16,33,25.60
2013,07,14,16,34,25.60
2013,07,14,16,35,25.60
2013,07,14,16,36,25.70
2013,07,14,16,37,25.70
2013,07,14,16,38,25.80
2013,07,14,16,39,25.90
2013,07,14,16,40,25.90
2013,07,14,16,41,25.90
2013,07,14,16,42,25.90
2013,07,14,16,43,26.00
2013,07,14,16,44,26.00
2013,07,14,16,45,25.90
2013,07,14,16,46,25.90
2013,07,14,16,47,25.90
2013,07,14,16,48,25.90
2013,07,14,16,49,25.90
2013,07,14,16,50,25.90
2013,07,14,16,51,25.90
2013,07,14,16,52,25.90
2013,07,14,16,53,25.90
2013,07,14,16,54,25.80
2013,07,14,16,55,25.80
2013,07,14,16,56,25.70
2013,07,14,16,57,25.70
2013,07,14,16,58,25.70
2013,07,14,16,59,25.70
2013,07,14,17,00,25.80
2013,07,14,17,01,25.80
2013,07,14,17,02,25.90
2013,07,14,17,03,25.80
2013,07,14,17,04,25.80
2013,07,14,17,05,25.70
2013,07,14,17,06,25.80
2013,07,14,17,07,25.80
2013,07,14,17,08,25.80
2013,07,14,17,09,25.70
2013,07,14,17,10,25.70
2013,07,14,17,11,25.70
2013,07,14,17,12,25.70
2013,07,14,17,13,25.70
2013,07,14,17,14,25.80
2013,07,14,17,15,25.80
2013,07,14,17,16,25.90
2013,07,14,17,17,26.00
2013,07,14,17,18,26.00
2013,07,14,17,19,26.00